| time (UTC) | temp C | wind direction | speed KPH | gust KPH | rain 1hr cm | rain 24hr cm | rain mn cm | humidity % | barometer mb |
| 20260905155356 | 33 | 344 | 1.6 | 3.2 | 0.00 | 0.00 | 0.00 | 35 | 1011.8 |
| 20260905154402 | 33 | 42 | 1.6 | 3.2 | 0.00 | 0.00 | 0.00 | 35 | 1011.9 |
| 20260905153349 | 33 | 68 | 0.0 | 0.0 | 0.00 | 0.00 | 0.00 | 35 | 1011.9 |
| 20260905152335 | 32 | 99 | 0.0 | 3.2 | 0.00 | 0.00 | 0.00 | 36 | 1011.8 |
| 20260905151326 | 32 | 42 | 1.6 | 3.2 | 0.00 | 0.00 | 0.00 | 38 | 1011.6 |
| 20260905150353 | 32 | 330 | 0.0 | 0.0 | 0.00 | 0.00 | 0.00 | 39 | 1011.5 |
| 20260905145337 | 31 | 329 | 0.0 | 1.6 | 0.00 | 0.00 | 0.00 | 40 | 1011.5 |
| 20260905144344 | 31 | 319 | 0.0 | 1.6 | 0.00 | 0.00 | 0.00 | 40 | 1011.6 |
| 20260905143335 | 31 | 319 | 0.0 | 0.0 | 0.00 | 0.00 | 0.00 | 41 | 1011.5 |
| 20260905142341 | 30 | 319 | 0.0 | 0.0 | 0.00 | 0.00 | 0.00 | 45 | 1011.3 |
| 20260905141328 | 29 | 319 | 0.0 | 0.0 | 0.00 | 0.00 | 0.00 | 47 | 1011.3 |
| 20260905140337 | 28 | 319 | 0.0 | 0.0 | 0.00 | 0.00 | 0.00 | 50 | 1011.2 |
| 20260905135345 | 28 | 319 | 0.0 | 0.0 | 0.00 | 0.00 | 0.00 | 49 | 1011.2 |
| 20260905134331 | 28 | 319 | 0.0 | 0.0 | 0.00 | 0.00 | 0.00 | 48 | 1011.0 |
| 20260905133338 | 28 | 319 | 0.0 | 0.0 | 0.00 | 0.00 | 0.00 | 50 | 1010.9 |
| 20260905132405 | 28 | 319 | 0.0 | 0.0 | 0.00 | 0.00 | 0.00 | 49 | 1010.8 |
| 20260905131356 | 28 | 319 | 0.0 | 0.0 | 0.00 | 0.00 | 0.00 | 48 | 1010.7 |
| 20260905130340 | 28 | 319 | 0.0 | 0.0 | 0.00 | 0.00 | 0.00 | 46 | 1010.6 |
| 20260905125347 | 28 | 319 | 0.0 | 0.0 | 0.00 | 0.00 | 0.00 | 46 | 1010.4 |
| 20260905124333 | 28 | 319 | 0.0 | 0.0 | 0.00 | 0.00 | 0.00 | 46 | 1010.4 |
| 20260905123339 | 28 | 319 | 0.0 | 0.0 | 0.00 | 0.00 | 0.00 | 45 | 1010.4 |
| 20260905122330 | 28 | 319 | 0.0 | 1.6 | 0.00 | 0.00 | 0.00 | 45 | 1010.2 |
| 20260905121338 | 28 | 319 | 0.0 | 1.6 | 0.00 | 0.00 | 0.00 | 45 | 1010.2 |
| 20260905120346 | 28 | 319 | 0.0 | 0.0 | 0.00 | 0.00 | 0.00 | 44 | 1010.1 |
| 20260905115334 | 29 | 319 | 0.0 | 0.0 | 0.00 | 0.00 | 0.00 | 43 | 1010.1 |
| 20260905114341 | 29 | 319 | 0.0 | 0.0 | 0.00 | 0.00 | 0.00 | 42 | 1010.1 |
| 20260905113327 | 29 | 319 | 0.0 | 1.6 | 0.00 | 0.00 | 0.00 | 42 | 1010.1 |
| 20260905112354 | 30 | 315 | 0.0 | 0.0 | 0.00 | 0.00 | 0.00 | 41 | 1010.1 |
| 20260905111341 | 30 | 315 | 0.0 | 0.0 | 0.00 | 0.00 | 0.00 | 41 | 1010.0 |
| 20260905110333 | 30 | 315 | 0.0 | 0.0 | 0.00 | 0.00 | 0.00 | 39 | 1010.0 |
| 20260905105339 | 30 | 317 | 0.0 | 1.6 | 0.00 | 0.00 | 0.00 | 39 | 1009.9 |
| 20260905104327 | 31 | 287 | 0.0 | 1.6 | 0.00 | 0.00 | 0.00 | 38 | 1009.9 |
| 20260905103334 | 31 | 345 | 0.0 | 1.6 | 0.00 | 0.00 | 0.00 | 38 | 1009.9 |
| 20260905102346 | 31 | 345 | 0.0 | 3.2 | 0.00 | 0.00 | 0.00 | 37 | 1009.8 |
| 20260905101353 | 31 | 345 | 1.6 | 4.8 | 0.00 | 0.00 | 0.00 | 37 | 1009.7 |
| 20260905100340 | 31 | 340 | 1.6 | 6.4 | 0.00 | 0.00 | 0.00 | 36 | 1009.7 |
| 20260905095326 | 31 | 254 | 3.2 | 6.4 | 0.00 | 0.00 | 0.00 | 36 | 1009.7 |
| 20260905094332 | 31 | 338 | 1.6 | 8.0 | 0.00 | 0.00 | 0.00 | 37 | 1009.7 |
| 20260905093341 | 31 | 321 | 4.8 | 9.7 | 0.00 | 0.00 | 0.00 | 37 | 1009.8 |
| 20260905092327 | 31 | 319 | 4.8 | 9.7 | 0.00 | 0.00 | 0.00 | 37 | 1009.7 |
| 20260905091334 | 31 | 324 | 3.2 | 9.7 | 0.00 | 0.00 | 0.00 | 37 | 1009.7 |
| 20260905090342 | 31 | 303 | 4.8 | 8.0 | 0.00 | 0.00 | 0.00 | 37 | 1009.7 |
| 20260905085350 | 31 | 348 | 1.6 | 6.4 | 0.00 | 0.00 | 0.00 | 38 | 1009.7 |
| 20260905084359 | 31 | 332 | 3.2 | 8.0 | 0.00 | 0.00 | 0.00 | 37 | 1009.7 |
| 20260905083343 | 31 | 286 | 0.0 | 4.8 | 0.00 | 0.00 | 0.00 | 37 | 1009.7 |
| 20260905082347 | 31 | 279 | 1.6 | 4.8 | 0.00 | 0.00 | 0.00 | 37 | 1009.7 |
| 20260905081333 | 31 | 288 | 3.2 | 6.4 | 0.00 | 0.00 | 0.00 | 36 | 1009.7 |
| 20260905080401 | 32 | 269 | 1.6 | 9.7 | 0.00 | 0.00 | 0.00 | 36 | 1009.7 |
| 20260905075333 | 32 | 304 | 0.0 | 1.6 | 0.00 | 0.00 | 0.00 | 36 | 1009.7 |
| 20260905074340 | 32 | 304 | 0.0 | 1.6 | 0.00 | 0.00 | 0.00 | 35 | 1009.7 |
| 20260905073328 | 32 | 304 | 0.0 | 1.6 | 0.00 | 0.00 | 0.00 | 34 | 1009.7 |
| 20260905072334 | 32 | 286 | 0.0 | 4.8 | 0.00 | 0.00 | 0.00 | 34 | 1009.7 |
| 20260905071344 | 32 | 284 | 1.6 | 3.2 | 0.00 | 0.00 | 0.00 | 33 | 1009.6 |
| 20260905070332 | 33 | 297 | 0.0 | 0.0 | 0.00 | 0.00 | 0.00 | 32 | 1009.6 |
| 20260905065339 | 33 | 300 | 0.0 | 1.6 | 0.00 | 0.00 | 0.00 | 32 | 1009.6 |
| 20260905064405 | 33 | 274 | 0.0 | 8.0 | 0.00 | 0.00 | 0.00 | 31 | 1009.6 |
| 20260905063334 | 33 | 269 | 0.0 | 6.4 | 0.00 | 0.00 | 0.00 | 31 | 1009.4 |
| 20260905062339 | 33 | 262 | 4.8 | 11.3 | 0.00 | 0.00 | 0.00 | 30 | 1009.3 |
| 20260905061326 | 33 | 257 | 1.6 | 8.0 | 0.00 | 0.00 | 0.00 | 29 | 1009.3 |
| 20260905060333 | 33 | 275 | 4.8 | 8.0 | 0.00 | 0.00 | 0.00 | 29 | 1009.3 |
| 20260905055344 | 34 | 227 | 1.6 | 3.2 | 0.00 | 0.00 | 0.00 | 29 | 1009.3 |
| 20260905054329 | 34 | 270 | 0.0 | 4.8 | 0.00 | 0.00 | 0.00 | 28 | 1009.2 |
| 20260905053337 | 34 | 251 | 1.6 | 6.4 | 0.00 | 0.00 | 0.00 | 28 | 1009.1 |
| 20260905052344 | 35 | 316 | 4.8 | 12.9 | 0.00 | 0.00 | 0.00 | 28 | 1009.1 |
| 20260905051335 | 35 | 277 | 4.8 | 11.3 | 0.00 | 0.00 | 0.00 | 28 | 1009.0 |
| 20260905050341 | 35 | 236 | 1.6 | 9.7 | 0.00 | 0.00 | 0.00 | 28 | 1009.0 |
| 20260905045345 | 35 | 242 | 3.2 | 11.3 | 0.00 | 0.00 | 0.00 | 28 | 1008.9 |
| 20260905044332 | 35 | 265 | 4.8 | 12.9 | 0.00 | 0.00 | 0.00 | 28 | 1008.9 |
| 20260905043343 | 35 | 225 | 3.2 | 16.1 | 0.00 | 0.00 | 0.00 | 28 | 1008.8 |
| 20260905042331 | 35 | 255 | 6.4 | 19.3 | 0.00 | 0.00 | 0.00 | 28 | 1008.7 |
| 20260905041338 | 35 | 230 | 4.8 | 14.5 | 0.00 | 0.00 | 0.00 | 28 | 1008.6 |
| 20260905040344 | 35 | 267 | 6.4 | 14.5 | 0.00 | 0.00 | 0.00 | 28 | 1008.6 |
| 20260905035334 | 35 | 243 | 9.7 | 17.7 | 0.00 | 0.00 | 0.00 | 28 | 1008.5 |
| 20260905034340 | 36 | 268 | 4.8 | 16.1 | 0.00 | 0.00 | 0.00 | 29 | 1008.3 |
| 20260905033326 | 36 | 236 | 8.0 | 16.1 | 0.00 | 0.00 | 0.00 | 28 | 1008.2 |
| 20260905032333 | 36 | 259 | 6.4 | 16.1 | 0.00 | 0.00 | 0.00 | 28 | 1008.2 |
| 20260905031343 | 36 | 222 | 4.8 | 16.1 | 0.00 | 0.00 | 0.00 | 27 | 1008.1 |
| 20260905030329 | 36 | 233 | 6.4 | 12.9 | 0.00 | 0.00 | 0.00 | 27 | 1007.8 |
| 20260905025336 | 36 | 277 | 4.8 | 16.1 | 0.00 | 0.00 | 0.00 | 26 | 1007.7 |
| 20260905024400 | 36 | 236 | 4.8 | 19.3 | 0.00 | 0.00 | 0.00 | 25 | 1007.6 |
| 20260905023329 | 36 | 207 | 4.8 | 20.9 | 0.00 | 0.00 | 0.00 | 24 | 1007.5 |
| 20260905022336 | 37 | 254 | 9.7 | 22.5 | 0.00 | 0.00 | 0.00 | 24 | 1007.3 |
| 20260905021341 | 37 | 269 | 8.0 | 20.9 | 0.00 | 0.00 | 0.00 | 24 | 1007.3 |
| 20260905020328 | 37 | 249 | 6.4 | 20.9 | 0.00 | 0.00 | 0.00 | 24 | 1007.1 |
| 20260905015334 | 37 | 240 | 6.4 | 20.9 | 0.00 | 0.00 | 0.00 | 23 | 1007.1 |
| 20260905014346 | 37 | 292 | 8.0 | 19.3 | 0.00 | 0.00 | 0.00 | 23 | 1007.0 |
| 20260905013333 | 38 | 222 | 3.2 | 16.1 | 0.00 | 0.00 | 0.00 | 23 | 1006.9 |
| 20260905012341 | 38 | 275 | 6.4 | 19.3 | 0.00 | 0.00 | 0.00 | 23 | 1006.9 |
| 20260905011333 | 38 | 230 | 4.8 | 14.5 | 0.00 | 0.00 | 0.00 | 23 | 1006.7 |
| 20260905010340 | 39 | 277 | 4.8 | 14.5 | 0.00 | 0.00 | 0.00 | 23 | 1006.8 |
| 20260905005329 | 39 | 281 | 6.4 | 14.5 | 0.00 | 0.00 | 0.00 | 23 | 1006.8 |
| 20260905004336 | 39 | 183 | 4.8 | 8.0 | 0.00 | 0.00 | 0.00 | 25 | 1006.9 |
| 20260905003328 | 39 | 184 | 1.6 | 4.8 | 0.00 | 0.00 | 0.00 | 26 | 1006.8 |
| 20260905002334 | 39 | 118 | 1.6 | 9.7 | 0.00 | 0.00 | 0.00 | 26 | 1006.9 |
| 20260905001342 | 38 | 128 | 8.0 | 12.9 | 0.00 | 0.00 | 0.00 | 26 | 1006.9 |
| 20260905000329 | 38 | 123 | 3.2 | 8.0 | 0.00 | 0.00 | 0.00 | 27 | 1007.0 |
| 20260904235401 | 37 | 196 | 0.0 | 3.2 | 0.00 | 0.00 | 0.00 | 27 | 1007.0 |
| 20260904234327 | 37 | 92 | 0.0 | 9.7 | 0.00 | 0.00 | 0.00 | 27 | 1007.0 |
| 20260904233334 | 38 | 195 | 0.0 | 6.4 | 0.00 | 0.00 | 0.00 | 27 | 1007.1 |
| 20260904232343 | 38 | 5 | 4.8 | 6.4 | 0.00 | 0.00 | 0.00 | 27 | 1007.1 |
| 20260904231332 | 38 | 209 | 4.8 | 9.7 | 0.00 | 0.00 | 0.00 | 28 | 1007.4 |
| 20260904230337 | 38 | 142 | 4.8 | 14.5 | 0.00 | 0.00 | 0.00 | 28 | 1007.4 |
| 20260904225344 | 38 | 161 | 3.2 | 14.5 | 0.00 | 0.00 | 0.00 | 28 | 1007.4 |
| 20260904224351 | 38 | 178 | 6.4 | 14.5 | 0.00 | 0.00 | 0.00 | 28 | 1007.5 |
| 20260904223341 | 38 | 199 | 3.2 | 12.9 | 0.00 | 0.00 | 0.00 | 27 | 1007.7 |
| 20260904222345 | 38 | 205 | 8.0 | 17.7 | 0.00 | 0.00 | 0.00 | 27 | 1007.6 |
| 20260904221333 | 39 | 223 | 11.3 | 16.1 | 0.00 | 0.00 | 0.00 | 26 | 1007.8 |
| 20260904220341 | 39 | 193 | 9.7 | 14.5 | 0.00 | 0.00 | 0.00 | 26 | 1007.9 |
| 20260904215349 | 38 | 184 | 6.4 | 16.1 | 0.00 | 0.00 | 0.00 | 28 | 1008.1 |
| 20260904214358 | 38 | 69 | 3.2 | 11.3 | 0.00 | 0.00 | 0.00 | 28 | 1008.3 |
| 20260904213343 | 38 | 242 | 3.2 | 14.5 | 0.00 | 0.00 | 0.00 | 29 | 1008.4 |
| 20260904212330 | 39 | 186 | 4.8 | 16.1 | 0.00 | 0.00 | 0.00 | 28 | 1008.5 |
| 20260904211337 | 39 | 169 | 4.8 | 11.3 | 0.00 | 0.00 | 0.00 | 30 | 1008.6 |
| 20260904210328 | 38 | 130 | 1.6 | 14.5 | 0.00 | 0.00 | 0.00 | 30 | 1008.8 |
| 20260904205335 | 38 | 271 | 4.8 | 14.5 | 0.00 | 0.00 | 0.00 | 30 | 1008.8 |
| 20260904204343 | 38 | 261 | 6.4 | 11.3 | 0.00 | 0.00 | 0.00 | 31 | 1008.9 |
| 20260904203329 | 37 | 130 | 3.2 | 16.1 | 0.00 | 0.00 | 0.00 | 32 | 1009.2 |
| 20260904202340 | 37 | 122 | 4.8 | 14.5 | 0.00 | 0.00 | 0.00 | 33 | 1009.3 |
| 20260904201328 | 37 | 171 | 4.8 | 16.1 | 0.00 | 0.00 | 0.00 | 33 | 1009.5 |
| 20260904200334 | 37 | 268 | 3.2 | 8.0 | 0.00 | 0.00 | 0.00 | 33 | 1009.7 |
| 20260904195338 | 37 | 204 | 8.0 | 24.1 | 0.00 | 0.00 | 0.00 | 34 | 1009.9 |
| 20260904194329 | 37 | 150 | 6.4 | 16.1 | 0.00 | 0.00 | 0.00 | 35 | 1009.9 |
| 20260904193336 | 36 | 108 | 6.4 | 11.3 | 0.00 | 0.00 | 0.00 | 36 | 1009.9 |
| 20260904192343 | 36 | 142 | 1.6 | 14.5 | 0.00 | 0.00 | 0.00 | 36 | 1010.1 |
| 20260904191328 | 36 | 165 | 9.7 | 17.7 | 0.00 | 0.00 | 0.00 | 37 | 1010.2 |
| 20260904190339 | 36 | 140 | 9.7 | 19.3 | 0.00 | 0.00 | 0.00 | 37 | 1010.4 |
| 20260904185327 | 36 | 113 | 8.0 | 11.3 | 0.00 | 0.00 | 0.00 | 38 | 1010.5 |
| 20260904184334 | 36 | 150 | 3.2 | 9.7 | 0.00 | 0.00 | 0.00 | 39 | 1010.8 |
| 20260904183401 | 36 | 233 | 8.0 | 16.1 | 0.00 | 0.00 | 0.00 | 38 | 1010.9 |
| 20260904182331 | 36 | 180 | 4.8 | 19.3 | 0.00 | 0.00 | 0.00 | 40 | 1011.0 |
| 20260904181338 | 35 | 164 | 4.8 | 16.1 | 0.00 | 0.00 | 0.00 | 40 | 1011.1 |
| 20260904180344 | 35 | 130 | 9.7 | 16.1 | 0.00 | 0.00 | 0.00 | 40 | 1011.2 |
| 20260904175333 | 35 | 127 | 4.8 | 20.9 | 0.00 | 0.00 | 0.00 | 41 | 1011.3 |
| 20260904174344 | 35 | 115 | 6.4 | 12.9 | 0.00 | 0.00 | 0.00 | 41 | 1011.3 |
| 20260904173330 | 35 | 148 | 11.3 | 22.5 | 0.00 | 0.00 | 0.00 | 43 | 1011.5 |
| 20260904172337 | 34 | 150 | 6.4 | 17.7 | 0.00 | 0.00 | 0.00 | 44 | 1011.4 |
| 20260904171343 | 34 | 167 | 11.3 | 17.7 | 0.00 | 0.00 | 0.00 | 44 | 1011.5 |
| 20260904170356 | 33 | 153 | 4.8 | 19.3 | 0.00 | 0.00 | 0.00 | 45 | 1011.4 |
| 20260904165342 | 33 | 167 | 12.9 | 22.5 | 0.00 | 0.00 | 0.00 | 46 | 1011.3 |
| 20260904164329 | 33 | 178 | 8.0 | 19.3 | 0.00 | 0.00 | 0.00 | 47 | 1011.3 |
| 20260904163336 | 33 | 84 | 8.0 | 17.7 | 0.00 | 0.00 | 0.00 | 48 | 1011.2 |
| 20260904162326 | 33 | 153 | 8.0 | 19.3 | 0.00 | 0.00 | 0.00 | 49 | 1011.2 |
| 20260904161333 | 32 | 99 | 8.0 | 19.3 | 0.00 | 0.00 | 0.00 | 49 | 1011.1 |
| 20260904160339 | 32 | 146 | 14.5 | 22.5 | 0.00 | 0.00 | 0.00 | 50 | 1011.2 |